Skip Page Navigation
NASA JPL Caltech
NASA Logo - Jet Propulsion Laboratory + View the NASA Portal
+ Near-Earth Object (NEO) Program
Search JPL
JPL Home Earth Solar System Stars & Galaxies Technology
JPL Solar System Dynamics
BODIES ORBITS EPHEMERIDES TOOLS PHYSICAL DATA DISCOVERY FAQ SITE MAP
JPL Small-Body Database Browser
Search: [ help ]  
197588 (2004 HE12)
Classification: Apollo [NEO, PHA]          SPK-ID: 2197588
Ephemeris | Orbit Diagram | Orbital Elements | Physical Parameters | Discovery Circumstances | Close-Approach Data ]

[ hide orbit diagram ]
Orbit Diagram
Note: Make sure you have Java enabled on your browser to see the applet. This applet is provided as a 3D orbit visualization tool. The applet was implemented using 2-body methods, and hence should not be used for determining accurate long-term trajectories (over several years or decades) or planetary encounter circumstances. For accurate long-term ephemerides, please instead use our Horizons system.
Orbit Viewer

Additional Notes: the orbits shown in the applet are color coded. The planets are white lines, and the asteroid/comet is a blue line. The bright white line indicates the portion of the orbit that is above the ecliptic plane, and the darker portion is below the ecliptic plane. Likewise for the asteroid/comet orbit, the light blue indicates the portion above the ecliptic plane, and the dark blue the portion below the ecliptic plane.

Orbit Viewer applet originally written and kindly provided by Osamu Ajiki (AstroArts), and further modified by Ron Baalke (JPL).


Orbital Elements at Epoch 2456400.5 (2013-Apr-18.0) TDB
Reference: JPL 16 (heliocentric ecliptic J2000)
 Element Value Uncertainty (1-sigma)   Units 
e .466049507697798 4.4081e-07  
a 1.845311265551077 2.1705e-07 AU
q .9853048586917968 8.6132e-07 AU
i 42.6986328322123 9.7216e-05 deg
node 338.0792325311191 7.5407e-05 deg
peri 162.1553550836371 0.00011179 deg
M 218.1006856919896 0.00025538 deg
tp 2456761.394839958823
(2014-Apr-13.89483996)
0.00071287 JED
period 915.5938703351576
2.51
0.00016154
4.423e-07
d
yr
n .3931874291253394 6.937e-08 deg/d
Q 2.705317672410356 3.182e-07 AU
  Orbit Determination Parameters
   # obs. used (total)      51  
   data-arc span      4326 days (11.84 yr)  
   first obs. used      2000-09-21  
   last obs. used      2012-07-26  
   planetary ephem.      DE405  
   SB-pert. ephem.      SB405-CPV-2  
   condition code      1  
   fit RMS      .52777  
   data source      ORB  
   producer      Otto Matic  
   solution date      2013-Apr-29 15:40:29  

Additional Information
 Earth MOID = .00993294 AU 
 T_jup = 3.594 
[ show covariance matrix ]

Ephemeris | Orbit Diagram | Orbital Elements | Physical Parameters | Discovery Circumstances | Close-Approach Data ]

Physical Parameter Table
Parameter Symbol Value Units Sigma Reference Notes
absolute magnitude H 17.564 mag .7597 16 autocmod 2.5c

197588 (2004 HE12)          Discovered 2004-Apr-20 by Spacewatch at Kitt Peak (291)
Reference: 20081113/Numbers.arcLast Updated: 2008-11-17

[ show close-approach data ]
Ephemeris | Orbit Diagram | Orbital Elements | Physical Parameters | Discovery Circumstances | Close-Approach Data ]
ABOUT SSD CREDITS/AWARDS PRIVACY/COPYRIGHT GLOSSARY LINKS
FirstGov 2013-May-22 13:43 UT
(server date/time)  
NASA Home Page
Site Manager:   Donald K. Yeomans
Webmaster  Alan B. Chamberlin